FW5428 Weather Reports


Display with metric or nautical units.
time (UTC)temp
F
wind
direction
speed
MPH
gust
MPH
rain 1hr
in
rain 24hr
in
rain mn
in
humidity
%
barometer
mb
20260901201526 60 270 8.0 10.0 0.00 0.00 0.20 91 1017.3
20260901201016 59 180 7.0 9.0 0.00 0.00 0.20 91 1017.2
20260901195955 59 180 8.0 11.0 0.00 0.00 0.20 91 1017.1
20260901195446 59 180 8.0 11.0 0.00 0.00 0.20 90 1017.2
20260901194425 59 225 8.0 11.0 0.00 0.00 0.20 90 1017.2
20260901193916 59 225 4.0 11.0 0.00 0.00 0.20 90 1017.3
20260901193406 59 180 6.0 11.0 0.00 0.00 0.20 91 1017.3
20260901192855 59 180 8.0 11.0 0.00 0.00 0.20 91 1017.3
20260901192345 59 180 9.0 12.0 0.00 0.00 0.20 91 1017.4
20260901190816 59 180 9.0 12.0 0.00 0.00 0.20 91 1017.4
20260901190305 59 180 9.0 12.0 0.00 0.00 0.20 91 1017.2
20260901185755 59 180 10.0 11.0 0.00 0.00 0.20 90 1017.3
20260901185245 59 180 8.0 11.0 0.00 0.00 0.20 90 1017.2
20260901184734 59 180 7.0 11.0 0.00 0.00 0.20 90 1017.5
20260901183714 59 180 10.0 11.0 0.00 0.00 0.20 90 1017.5
20260901183204 59 225 7.0 10.0 0.00 0.00 0.20 90 1017.4
20260901182144 59 180 6.0 10.0 0.00 0.00 0.20 90 1017.5
20260901181634 58 180 5.0 10.0 0.00 0.00 0.20 91 1017.4
20260901181123 58 225 8.0 11.0 0.00 0.00 0.20 91 1017.2
20260901180104 58 225 8.0 11.0 0.00 0.00 0.20 91 1017.6
20260901175053 58 180 9.0 11.0 0.00 0.00 0.20 92 1017.6
20260901174023 57 180 6.0 13.0 0.00 0.00 0.20 92 1017.8
20260901173003 57 180 10.0 13.0 0.00 0.00 0.20 92 1017.8
20260901171943 57 180 9.0 13.0 0.00 0.00 0.20 91 1018.0
20260901171434 57 225 8.0 11.0 0.00 0.00 0.20 91 1018.1
20260901170922 57 180 8.0 11.0 0.00 0.00 0.20 91 1018.3
20260901165902 57 225 8.0 11.0 0.00 0.00 0.20 91 1018.4
20260901164842 57 180 6.0 8.0 0.00 0.00 0.20 92 1018.4
20260901164332 56 180 5.0 8.0 0.00 0.00 0.20 92 1018.8
20260901163821 56 225 2.0 8.0 0.00 0.00 0.20 92 1018.7
20260901163311 56 180 4.0 8.0 0.00 0.00 0.20 92 1018.8
20260901162802 56 180 6.0 10.0 0.00 0.00 0.20 92 1018.8
20260901162252 56 180 7.0 10.0 0.00 0.00 0.20 93 1018.9
20260901161741 56 270 4.0 9.0 0.00 0.00 0.20 93 1018.9
20260901161231 56 180 7.0 9.0 0.00 0.00 0.20 93 1018.8
20260901160721 56 180 2.0 4.0 0.00 0.00 0.20 93 1018.8
20260901160210 56 180 2.0 4.0 0.00 0.00 0.20 93 1018.9
20260901155701 56 180 1.0 4.0 0.00 0.00 0.20 94 1018.9
20260901155150 55 90 2.0 4.0 0.00 0.00 0.20 94 1019.0
20260901154641 55 180 2.0 6.0 0.00 0.00 0.20 94 1019.1
20260901154131 55 180 2.0 7.0 0.00 0.00 0.20 94 1019.1
20260901152600 55 180 2.0 11.0 0.00 0.00 0.20 94 1019.1
20260901152049 55 180 7.0 11.0 0.00 0.00 0.00 95 1019.4
20260901151540 55 180 6.0 10.0 0.00 0.00 0.00 95 1019.5
20260901151029 55 180 5.0 8.0 0.00 0.00 0.00 95 1019.5
20260901150519 54 180 4.0 8.0 0.00 0.00 0.00 95 1019.4
20260901150013 54 180 4.0 8.0 0.00 0.00 0.00 95 1019.4
20260901144949 54 180 2.0 9.0 0.00 0.00 0.00 95 1019.3
20260901144439 54 180 2.0 9.0 0.00 0.00 0.00 95 1019.6
20260901143929 54 180 5.0 9.0 0.00 0.00 0.00 95 1019.6
20260901143419 54 135 4.0 9.0 0.00 0.00 0.00 95 1019.3
20260901142908 54 135 7.0 9.0 0.00 0.00 0.00 95 1019.5
20260901142358 54 180 5.0 11.0 0.00 0.00 0.00 95 1019.4
20260901141848 54 135 5.0 11.0 0.00 0.00 0.00 95 1019.4
20260901141338 54 135 8.0 11.0 0.00 0.00 0.00 95 1019.3
20260901140828 54 180 6.0 12.0 0.00 0.00 0.00 95 1019.3
20260901140318 54 180 6.0 15.0 0.00 0.00 0.00 95 1019.3
20260901135808 54 180 11.0 15.0 0.00 0.00 0.00 95 1019.6
20260901135258 54 180 10.0 14.0 0.00 0.00 0.00 95 1019.5
20260901134748 54 180 10.0 14.0 0.00 0.00 0.00 95 1019.5
20260901134237 54 180 9.0 16.0 0.00 0.00 0.00 95 1019.3
20260901133728 54 180 12.0 19.0 0.00 0.00 0.00 95 1019.7
20260901133218 53 180 15.0 19.0 0.00 0.00 0.00 95 1019.7
20260901132707 54 180 14.0 17.0 0.00 0.00 0.00 95 1019.6
20260901132157 54 180 15.0 17.0 0.00 0.00 0.00 95 1019.5
20260901131647 54 180 14.0 17.0 0.00 0.00 0.00 95 1019.7
20260901131137 54 180 14.0 16.0 0.00 0.00 0.00 95 1019.3
20260901130634 54 180 11.0 17.0 0.00 0.00 0.00 95 1019.3
20260901130116 54 180 11.0 17.0 0.00 0.00 0.00 95 1019.4
20260901125607 54 180 13.0 16.0 0.00 0.00 0.00 95 1019.4
20260901125057 54 180 11.0 16.0 0.00 0.00 0.00 95 1019.2
20260901123526 54 180 8.0 14.0 0.00 0.00 0.00 95 1019.0
20260901123017 54 180 10.0 16.0 0.00 0.00 0.00 95 1018.9
20260901122507 54 180 9.0 16.0 0.00 0.00 0.00 95 1018.6
20260901121445 54 180 13.0 15.0 0.00 0.00 0.00 95 1018.5
20260901120936 54 180 9.0 15.0 0.00 0.00 0.00 95 1018.5
20260901120426 54 180 11.0 14.0 0.00 0.00 0.00 95 1018.3
20260901115928 54 180 10.0 16.0 0.00 0.00 0.00 95 1018.0
20260901115405 54 180 13.0 16.0 0.00 0.00 0.00 95 1018.2
20260901114856 54 180 13.0 15.0 0.00 0.00 0.00 95 1018.1
20260901114345 54 180 11.0 16.0 0.00 0.00 0.00 95 1018.3
20260901112815 53 180 11.0 16.0 0.00 0.00 0.00 95 1017.9
20260901112306 53 180 10.0 16.0 0.00 0.00 0.00 95 1017.9
20260901111754 53 180 13.0 16.0 0.00 0.00 0.00 95 1017.7
20260901111244 53 180 0.0 7.0 0.00 0.00 0.00 95 1017.2
20260901110734 53 180 2.0 7.0 0.00 0.00 0.00 95 1017.2
20260901110224 53 135 3.0 5.0 0.00 0.00 0.00 95 1017.1
20260901105714 53 180 2.0 5.0 0.00 0.00 0.00 95 1017.0
20260901105204 53 180 2.0 4.0 0.00 0.00 0.00 95 1016.8
20260901104654 53 135 2.0 4.0 0.00 0.00 0.00 95 1016.9
20260901102613 53 180 2.0 5.0 0.00 0.00 0.00 95 1016.9
20260901101043 53 180 0.0 3.0 0.00 0.00 0.00 95 1016.4
20260901100023 53 270 2.0 3.0 0.00 0.00 0.00 95 1016.6
20260901095513 53 180 0.0 3.0 0.00 0.00 0.00 95 1016.6
20260901095004 53 180 1.0 3.0 0.00 0.00 0.00 95 1016.5
20260901094452 53 180 0.0 4.0 0.00 0.00 0.00 95 1016.4
20260901093942 53 225 1.0 4.0 0.00 0.00 0.00 95 1016.2
20260901092922 53 180 2.0 6.0 0.00 0.00 0.00 95 1016.3
20260901092412 53 180 3.0 6.0 0.00 0.00 0.00 95 1016.3
20260901091902 53 225 2.0 5.0 0.00 0.00 0.00 95 1016.5
20260901091352 53 225 2.0 8.0 0.00 0.00 0.00 95 1016.3
20260901090848 53 180 3.0 8.0 0.00 0.00 0.00 95 1016.1
20260901090332 53 180 4.0 7.0 0.00 0.00 0.00 95 1016.2
20260901085311 53 225 3.0 8.0 0.00 0.00 0.00 95 1016.0
20260901084801 53 180 3.0 6.0 0.00 0.00 0.00 95 1016.0
20260901084251 53 90 2.0 5.0 0.00 0.00 0.00 95 1016.0
20260901081700 53 180 4.0 9.0 0.00 0.00 0.00 95 1015.7
20260901080641 53 135 4.0 8.0 0.00 0.00 0.00 95 1015.8
20260901080131 53 180 2.0 11.0 0.00 0.00 0.00 95 1015.8
20260901075620 53 180 5.0 11.0 0.00 0.00 0.00 95 1015.9
20260901075111 53 180 9.0 11.0 0.00 0.00 0.00 94 1015.9
20260901074600 53 180 9.0 11.0 0.00 0.00 0.00 94 1016.0
20260901074050 53 180 8.0 12.0 0.00 0.00 0.00 94 1015.9
20260901073540 53 180 7.0 13.0 0.00 0.00 0.00 94 1015.9
20260901073029 54 180 9.0 17.0 0.00 0.00 0.00 94 1015.9
20260901072519 54 180 6.0 17.0 0.00 0.00 0.00 94 1015.9
20260901072009 54 180 14.0 17.0 0.00 0.00 0.00 94 1015.7
20260901071459 55 180 11.0 17.0 0.00 0.00 0.00 94 1015.9
20260901070949 55 180 15.0 18.0 0.00 0.00 0.00 93 1015.9
20260901070439 55 180 15.0 18.0 0.00 0.00 0.00 93 1015.6
20260901065929 56 180 15.0 18.0 0.00 0.00 0.00 93 1016.0
20260901065419 56 180 13.0 17.0 0.00 0.00 0.00 93 1015.9
20260901064909 56 180 14.0 17.0 0.00 0.00 0.00 93 1016.0
20260901063849 55 180 11.0 15.0 0.00 0.00 0.00 93 1016.2
20260901063338 55 180 11.0 15.0 0.00 0.00 0.00 93 1015.9
20260901062828 55 180 11.0 15.0 0.00 0.00 0.00 93 1015.9
20260901062318 55 180 11.0 15.0 0.00 0.00 0.00 93 1015.9
20260901061258 55 180 7.0 9.0 0.00 0.00 0.00 93 1016.3
20260901060748 55 180 7.0 0.0 0.00 0.00 0.00 93 1016.0
20260901060144 55 135 5.0 0.0 0.00 0.00 0.00 93 1016.2
20260901055548 55 180 7.0 9.0 0.00 0.00 0.00 94 1016.2
20260901055038 55 180 4.0 9.0 0.00 0.00 0.00 94 1016.1
20260901054528 55 135 4.0 10.0 0.00 0.00 0.00 94 1016.2
20260901054018 55 90 5.0 14.0 0.00 0.00 0.00 94 1016.1
20260901053507 55 135 8.0 14.0 0.00 0.00 0.00 94 1015.8
20260901052957 55 135 8.0 14.0 0.00 0.00 0.00 94 1016.3
20260901052448 55 135 6.0 15.0 0.00 0.00 0.00 94 1016.5
20260901051938 55 180 9.0 15.0 0.00 0.00 0.00 94 1016.5
20260901051427 55 180 10.0 13.0 0.00 0.00 0.00 94 1016.6
20260901050918 55 180 10.0 15.0 0.00 0.00 0.00 94 1016.6
20260901045856 55 135 12.0 19.0 0.00 0.00 0.00 94 1016.7
20260901045347 55 180 15.0 20.0 0.00 0.00 0.00 94 1016.7
20260901044836 56 180 16.0 20.0 0.00 0.00 0.00 94 1016.8
20260901044327 56 180 12.0 17.0 0.00 0.00 0.00 95 1016.8
20260901043817 55 180 16.0 17.0 0.00 0.00 0.00 95 1017.0
20260901042247 56 180 8.0 12.0 0.00 0.00 0.00 95 1016.5
20260901041737 56 180 9.0 15.0 0.00 0.00 0.00 95 1016.6
20260901041226 56 180 11.0 17.0 0.00 0.00 0.00 95 1016.6
20260901040716 56 180 14.0 17.0 0.00 0.00 0.00 95 1016.7
20260901040206 56 180 10.0 13.0 0.00 0.00 0.00 95 1016.8
20260901035656 56 180 9.0 13.0 0.00 0.00 0.00 95 1016.7
20260901035146 56 180 9.0 15.0 0.00 0.00 0.00 95 1016.7
20260901034125 56 180 11.0 15.0 0.00 0.00 0.00 95 1016.8
20260901033615 56 180 11.0 19.0 0.00 0.00 0.00 95 1016.6
20260901033105 56 180 12.0 19.0 0.00 0.00 0.00 95 1016.6
20260901032555 56 180 15.0 18.0 0.00 0.00 0.00 95 1016.7
20260901032045 56 180 11.0 18.0 0.00 0.00 0.00 95 1016.6
20260901031534 56 180 14.0 18.0 0.00 0.00 0.00 95 1016.5
20260901031025 56 180 15.0 20.0 0.00 0.00 0.00 94 1016.4
20260901030004 56 180 15.0 21.0 0.00 0.00 0.28 94 1016.3
20260901025454 56 180 17.0 22.0 0.00 0.00 0.28 94 1016.3
20260901024944 56 180 17.0 23.0 0.00 0.00 0.28 94 1016.2
20260901024434 57 180 15.0 23.0 0.00 0.00 0.28 94 1016.3
20260901023924 57 180 17.0 23.0 0.00 0.00 0.28 93 1015.9
20260901023414 57 180 18.0 23.0 0.00 0.00 0.28 93 1016.0
20260901022904 57 180 17.0 23.0 0.00 0.00 0.28 93 1015.8
20260901022354 57 180 20.0 23.0 0.00 0.00 0.28 93 1015.9
20260901021856 57 180 15.0 20.0 0.00 0.00 0.28 93 1016.0
20260901021334 58 225 12.0 17.0 0.00 0.00 0.28 93 1016.1
20260901020823 58 225 12.0 16.0 0.00 0.00 0.28 93 1015.8
20260901020313 58 225 10.0 18.0 0.00 0.00 0.28 93 1015.7
20260901015803 58 180 15.0 18.0 0.00 0.00 0.28 92 1015.7
20260901015253 58 180 14.0 18.0 0.00 0.00 0.28 92 1015.6
20260901014742 58 225 13.0 18.0 0.00 0.00 0.28 92 1015.6
20260901014232 58 180 13.0 17.0 0.00 0.00 0.28 92 1015.4
20260901013723 58 180 14.0 16.0 0.00 0.00 0.28 92 1015.6
20260901013213 58 180 13.0 15.0 0.00 0.00 0.28 92 1015.4
20260901012702 58 225 11.0 15.0 0.00 0.00 0.28 93 1015.5
20260901011642 58 180 10.0 14.0 0.00 0.00 0.28 92 1015.4
20260901011132 58 180 11.0 15.0 0.00 0.00 0.28 93 1015.2
20260901010622 58 180 11.0 15.0 0.00 0.00 0.28 93 1015.3
20260901010112 58 180 9.0 14.0 0.00 0.00 0.28 93 1015.1
20260901005602 58 180 7.0 13.0 0.00 0.00 0.28 92 1015.2
20260901005052 58 225 8.0 14.0 0.00 0.00 0.28 92 1015.2
20260901004541 58 225 8.0 15.0 0.00 0.00 0.28 92 1015.2
20260901004032 58 180 8.0 17.0 0.00 0.00 0.28 92 1015.2
20260901003522 58 225 8.0 20.0 0.00 0.00 0.28 92 1015.2
20260901003011 59 225 10.0 20.0 0.00 0.00 0.28 92 1015.0
20260901002501 59 225 12.0 22.0 0.00 0.00 0.28 92 1015.0
20260901001951 59 180 15.0 22.0 0.00 0.00 0.28 92 1014.6
20260901001440 59 225 15.0 19.0 0.00 0.00 0.28 92 1014.8
20260901000931 59 180 10.0 15.0 0.00 0.00 0.28 92 1014.7
20260901000420 59 180 10.0 15.0 0.00 0.00 0.28 92 1014.5
20260831235401 59 225 4.0 7.0 0.00 0.00 0.28 91 1014.4
20260831234850 59 270 4.0 7.0 0.00 0.00 0.28 91 1014.2
20260831234340 60 225 4.0 7.0 0.00 0.00 0.28 91 1014.2
20260831233830 60 270 4.0 7.0 0.00 0.00 0.28 90 1014.1
20260831233320 60 270 4.0 4.0 0.00 0.00 0.28 90 1013.9
20260831232819 60 225 1.0 4.0 0.00 0.00 0.28 89 1014.1
20260831232300 60 270 2.0 8.0 0.00 0.00 0.28 89 1014.0
20260831231750 61 270 3.0 8.0 0.00 0.00 0.28 89 1013.9
20260831231240 61 270 3.0 6.0 0.00 0.00 0.28 89 1014.0
20260831230729 61 270 4.0 6.0 0.00 0.00 0.28 89 1014.0
20260831230219 62 225 2.0 4.0 0.00 0.00 0.28 88 1014.1
20260831225709 62 225 2.0 4.0 0.00 0.00 0.28 87 1013.8
20260831225159 62 225 1.0 3.0 0.00 0.00 0.28 87 1013.8
20260831224649 62 180 1.0 4.0 0.00 0.00 0.28 86 1013.8
20260831224139 63 180 2.0 4.0 0.00 0.00 0.28 86 1013.7
20260831223628 63 135 3.0 6.0 0.00 0.00 0.28 85 1013.6
20260831223119 63 135 2.0 6.0 0.00 0.00 0.28 85 1013.5
20260831222609 63 135 4.0 7.0 0.00 0.00 0.28 85 1013.5
20260831222059 63 135 5.0 7.0 0.00 0.00 0.28 83 1013.1
20260831221548 64 135 3.0 7.0 0.00 0.00 0.28 83 1013.1
20260831221038 64 90 2.0 13.0 0.00 0.00 0.28 83 1013.0
20260831220022 64 135 8.0 13.0 0.00 0.00 0.28 82 1012.9
20260831215512 64 90 6.0 13.0 0.00 0.00 0.28 81 1012.7
20260831215001 64 90 5.0 10.0 0.00 0.00 0.28 81 1012.6
20260831214452 64 90 3.0 11.0 0.00 0.00 0.28 81 1012.6
20260831213942 64 90 4.0 11.0 0.00 0.00 0.28 81 1012.4
20260831213431 64 90 6.0 15.0 0.00 0.00 0.28 82 1012.2
20260831212921 64 90 5.0 15.0 0.00 0.00 0.28 81 1012.5
20260831211901 64 135 10.0 17.0 0.00 0.00 0.28 81 1012.3
20260831211351 64 135 13.0 18.0 0.00 0.00 0.28 82 1012.2
20260831210841 64 135 13.0 18.0 0.00 0.00 0.28 82 1012.3
20260831210330 65 135 14.0 17.0 0.00 0.00 0.28 82 1012.3
20260831205820 64 135 12.0 17.0 0.00 0.00 0.28 81 1012.6
20260831205311 64 135 11.0 17.0 0.00 0.00 0.28 82 1012.4
20260831204800 64 135 10.0 13.0 0.00 0.00 0.28 84 1012.6
20260831203741 64 135 10.0 13.0 0.00 0.00 0.28 83 1012.6
20260831202720 64 135 7.0 11.0 0.00 0.00 0.28 84 1012.8
20260831202210 64 135 8.0 11.0 0.00 0.00 0.28 84 1012.6
20260831201659 64 135 7.0 11.0 0.00 0.00 0.28 85 1012.6